www.pogodaiklimat.ru

Погода и климат >> Архив погоды >> Франция >> Лёкат


ПОГОДА в Лёкате

  • Прогноз погоды в Лёкате
  • Монитор погоды в Лёкате

АРХИВ ПОГОДЫ в Лёкате

Время (UTC), дата Ветер
(напр.,м/с)
 
Видим.   Явления Облачность Т
(С)
Тd
(С)
f
(%)
Тe
(С)
Тes
(С)
Комфортность P
(гПа)
Po
(гПа)
Тmin
(С)
Tmax
(С)
R
(мм)
R24
(мм)
S
(см)
22 10.06 СЗ 4-7
{8}
н/о н/о +16.2 +8.4 60 +16 +16 1013.6 1008.8
23 10.06 СЗ 4-8
{8}
н/о н/о +16.0 +8.2 60 +15 +15 1013.5 1008.7
00 11.06 СЗ 4-6
{8}
н/о н/о +15.7 +8.4 62 +15 +15 1013.3 1008.5
01 11.06 СЗ 3-6
{7}
н/о н/о +15.5 +8.5 63 +15 +15 1013.2 1008.4
02 11.06 СЗ 3-6
{7}
н/о н/о +15.2 +8.4 64 +15 +15 1012.1 1007.3
03 11.06 СЗ 4-6
{6}
30 км 10/10 1500 м
[St]
+14.8 +8.5 66 +14 +14 1011.7 1006.9
04 11.06 СЗ 3-5
{7}
н/о н/о +14.5 +8.2 66 +14 +14 1011.5 1006.7
05 11.06 СЗ 3-5
{5}
н/о {дождь} н/о +12.9 +9.5 80 +12 +12 1011.3 1006.5 0.4
06 11.06 СЗ 4
{12}
15 км слаб. дождь 10/10 1200 м
[St]
+11.8 +8.8 82 +10 +10 1011.8 1007.0 +11.8 +17.6 1
07 11.06 СЗ 4-6
{6}
н/о н/о +11.5 +8.5 82 +9 +9 1012.1 1007.3 2
08 11.06 СЗ 3-5
{7}
н/о н/о +11.7 +9.1 84 +10 +10 1012.4 1007.6 1
09 11.06 СЗ 3-5
{6}
н/о н/о +12.2 +9.0 81 +11 +11 1012.5 1007.7 3
10 11.06 СЗ 3-5
{5}
н/о н/о +12.6 +9.4 81 +11 +11 1012.9 1008.1 0.4
11 11.06 СЗ 3-4
{6}
н/о н/о +12.7 +9.3 80 +12 +12 1013.2 1008.4 0.4
12 11.06 СЗ 3
{9}
14 км дождь 10/10 800 м
[St]
+12.4 +9.8 84 +11 +11 1013.2 1008.4 2
13 11.06 СЗ 2-4
{5}
н/о н/о +13.0 +10.4 84 +12 +12 1012.9 1008.1 0.6
14 11.06 СЗ 2-4
{4}
н/о н/о +13.5 +10.1 80 +13 +13 1013.2 1008.4 0.6
15 11.06 З 1-3
{4}
14 км слаб. дождь 10/10 800 м
[St]
+14.1 +9.9 76 +14 +14 1013.2 1008.4 1
16 11.06 З 1-2
{3}
н/о н/о +14.8 +10.4 75 +15 +15 1012.6 1007.8 0.2
17 11.06 СЗ 2-4
{4}
н/о н/о +15.5 +10.0 70 +16 +16 1012.4 1007.6 0.0
18 11.06 СЗ 3-6
{7}
н/о {дождь} н/о +14.6 +7.4 62 +14 +14 1013.3 1008.5 +11.5 +15.6 0.2
19 11.06 СЗ 3-5
{5}
н/о н/о +14.1 +7.6 65 +13 +13 1013.4 1008.6
20 11.06 СЗ 3-4
{6}
н/о н/о +13.5 +7.9 69 +13 +13 1013.6 1008.8
21 11.06 СЗ 2-5
{6}
н/о н/о +13.9 +7.0 63 +13 +13 1013.9 1009.1
22 11.06 СЗ 3-6
{7}
н/о н/о +13.3 +7.1 66 +12 +12 1013.5 1008.7
23 11.06 СЗ 2-4
{5}
н/о н/о +12.7 +6.3 65 +12 +12 1014.0 1009.2
00 12.06 СЗ 3-5
{5}
н/о н/о +12.5 +6.1 65 +11 +11 1014.0 1009.2
01 12.06 СЗ 2-4
{6}
н/о н/о +12.5 +6.1 65 +12 +12 1013.7 1008.9
02 12.06 СЗ 2-3
{3}
н/о н/о +11.3 +5.6 68 +11 +11 1013.7 1008.9
03 12.06 СЗ 2-3
{3}
25 км ясно +11.1 +5.4 68 +10 +10 1013.7 1008.9
04 12.06 СЗ 2-3
{4}
н/о н/о +11.5 +5.8 68 +11 +11 1013.5 1008.7
05 12.06 СЗ 2-3
{3}
н/о н/о +12.2 +5.8 65 +12 +12 1014.1 1009.3
06 12.06 СЗ 2
{5}
н/о н/о +13.7 +6.3 61 +14 +14 1014.5 1009.7 +10.9 +14.5
07 12.06 СЗ 2-4
{4}
н/о н/о +15.4 +6.4 55 +16 +16 1015.1 1010.3
08 12.06 С 2-3
{4}
н/о н/о +16.8 +6.9 52 +17 +17 1014.9 1010.2
09 12.06 С 2-3
{3}
35 км 1/1 1200 м
[Cu med, cong]
+18.2 +6.7 47 +19 +31 опасность
простуды
1014.6 1009.9
10 12.06 ЮВ 2-3
{3}
н/о н/о +17.1 +8.2 56 +17 +17 1014.7 1010.0
11 12.06 ЮВ 3-4
{4}
н/о н/о +16.6 +8.8 60 +16 +16 1014.7 1010.0
12 12.06 ЮВ 4-4
{4}
35 км 1/1 1200 м
[Cu med, cong]
+16.4 +8.6 60 +16 +29 опасность
простуды
1014.7 1009.9
13 12.06 ЮВ 4-5
{5}
н/о н/о +16.7 +9.6 63 +16 +16 1014.3 1009.6
14 12.06 Ю 5-6
{6}
н/о н/о +16.7 +10.1 65 +16 +16 1014.2 1009.5
15 12.06 Ю 4-5
{6}
20 км 1/1 900 м
[Cu med, cong]
+17.7 +9.1 57 +17 +24 1014.1 1009.4
16 12.06 Ю 5-5
{6}
н/о н/о +17.2 +9.9 62 +17 +17 1013.9 1009.2
17 12.06 Ю 4-5
{5}
н/о н/о +16.9 +10.5 66 +16 +16 1013.7 1009.0
18 12.06 Ю 4-5
{5}
н/о н/о +16.9 +11.8 72 +17 +17 1014.1 1009.4 +13.7 +18.7
19 12.06 Ю 3-5
{5}
н/о н/о +16.9 +12.2 74 +17 +17 1014.2 1009.5
20 12.06 Ю 3-4
{4}
н/о н/о +16.4 +12.7 79 +16 +16 1014.5 1009.8
21 12.06 Ю 2-3
{4}
н/о н/о +16.3 +12.8 80 +16 +16 1015.0 1010.3
22 12.06 ЮЗ 2-3
{3}
н/о н/о +16.4 +12.2 76 +17 +17 1015.1 1010.4
23 12.06 ЮЗ 3-3
{3}
н/о н/о +15.7 +11.9 78 +15 +15 1014.8 1010.0
00 13.06 ЮЗ 4-3
{5}
н/о н/о +15.3 +11.3 77 +14 +14 1014.5 1009.7
01 13.06 З 2-2
{3}
н/о н/о +14.5 +10.9 79 +14 +14 1014.2 1009.4
02 13.06 С 1-2
{2}
н/о н/о +14.2 +10.2 77 +15 +15 1013.9 1009.1
03 13.06 С 2-2
{2}
20 км ясно +13.5 +10.8 84 +13 +13 1014.0 1009.2
04 13.06 С 2-2
{2}
н/о н/о +13.8 +12.0 89 +13 +13 1014.0 1009.2
05 13.06 СЗ 2-2
{3}
н/о н/о +14.0 +12.7 92 +14 +14 1014.5 1009.7
06 13.06 СЗ 1
{5}
20 км 1/1 800 м
[Cu med, cong]
+15.7 +13.7 88 +16 +19 1014.6 1009.8 +13.3 +17.0
07 13.06 С 1-2
{3}
н/о н/о +17.6 +14.1 80 +19 +19 1014.7 1010.0
08 13.06 В 3-3
{3}
н/о н/о +18.1 +13.8 76 +19 +19 1014.6 1009.9
09 13.06 В 3
{8}
20 км 4/1 800 м
[Cu med, cong Ci sp]
+17.8 +13.9 78 +18 +27 1014.7 1010.0
10 13.06 ЮВ 4-5
{5}
н/о н/о +17.9 +13.6 76 +18 +18 1014.4 1009.7
11 13.06 ЮВ 4-5
{6}
н/о н/о +17.9 +13.8 77 +18 +18 1014.2 1009.5
12 13.06 ЮВ 5-6
{6}
н/о н/о +18.5 +13.8 74 +19 +19 1014.1 1009.4
13 13.06 ЮВ 5-7
{7}
н/о н/о +18.2 +12.9 71 +18 +18 1013.8 1009.1
14 13.06 В 3-5
{7}
н/о н/о +17.9 +13.0 73 +18 +18 1013.6 1008.9
15 13.06 ЮВ 6-7
{7}
н/о н/о +17.7 +12.8 73 +17 +17 1013.2 1008.5
16 13.06 ЮВ 5-6
{8}
н/о н/о +17.5 +13.0 75 +17 +17 1013.1 1008.4
17 13.06 ЮВ 5-6
{6}
н/о н/о +17.4 +13.7 79 +17 +17 1012.8 1008.1
18 13.06 ЮВ 5-5
{7}
н/о н/о +17.1 +13.8 81 +16 +16 1012.8 1008.1 +15.6 +18.7
19 13.06 ЮВ 4-5
{6}
н/о н/о +17.0 +13.9 82 +16 +16 1013.2 1008.5
20 13.06 ЮВ 3-4
{5}
н/о н/о +16.9 +14.2 84 +17 +17 1013.6 1008.9
21 13.06 СВ 1-3
{3}
н/о н/о +16.8 +14.3 85 +18 +18 1013.8 1009.1
22 13.06 В 2-3
{3}
н/о н/о +17.0 +15.0 88 +17 +17 1014.0 1009.3
23 13.06 В 3-4
{4}
н/о н/о +16.8 +14.8 88 +17 +17 1014.0 1009.3
00 14.06 В 3-4
{5}
н/о н/о +16.9 +15.1 89 +17 +17 1013.4 1008.7
01 14.06 СВ 1-2
{5}
н/о н/о +16.9 +15.2 90 +18 +18 1012.7 1008.0
02 14.06 С 1-2
{2}
н/о н/о +16.7 +15.1 90 +18 +18 1012.3 1007.6
03 14.06 СЗ 2-2
{3}
20 км 9/9 600 м
[Frnb]
+16.0 +13.7 86 +16 +16 1012.4 1007.7
04 14.06 С 3-4
{4}
н/о н/о +16.4 +14.1 86 +16 +16 1012.0 1007.3
05 14.06 СЗ 4-6
{6}
н/о {дождь} н/о +15.4 +12.5 83 +15 +15 1011.5 1006.8 0.6
06 14.06 СЗ 2
{10}
20 км в посл. час дождь 9/9 600 м
[Frnb]
+15.1 +12.0 82 +15 +15 1011.5 1006.7 +15.0 +17.2 0.8
07 14.06 З 3-4
{4}
н/о {дождь} н/о +15.0 +12.5 85 +14 +14 1011.8 1007.0 0.4
08 14.06 СЗ 3-4
{6}
н/о н/о +16.5 +13.2 81 +16 +16 1011.6 1006.9 0.0
09 14.06 СЗ 3-6
{6}
20 км {дождь} 10/10 600 м
[Frnb]
+19.4 +14.0 71 +21 +21 комфорт 1011.5 1006.8 0.4
10 14.06 СЗ 3-5
{6}
н/о н/о +21.1 +14.0 64 +24 +24 комфорт 1010.9 1006.2
11 14.06 С 2-4
{5}
н/о н/о +21.9 +13.5 59 +25 +25 комфорт 1009.9 1005.3
12 14.06 СЗ 3-4
{6}
н/о н/о +22.4 +12.3 53 +25 +25 комфорт 1008.4 1003.8
13 14.06 С 2-3
{5}
н/о н/о +24.4 +10.7 42 +26 +26 жарко 1008.8 1004.2
14 14.06 СЗ 2-3
{4}
н/о н/о +24.1 +13.3 51 +26 +26 жарко 1008.4 1003.8
15 14.06 СЗ 3-6
{6}
20 км 10/10 600 м
[St]
+24.3 +13.2 50 +26 +26 жарко 1006.7 1002.1
16 14.06 СЗ 3-4
{5}
н/о н/о +24.6 +12.2 46 +26 +26 жарко 1008.4 1003.8
17 14.06 СЗ 4-8
{9}
н/о н/о +21.7 +13.3 59 +24 +24 комфорт 1009.4 1004.8
18 14.06 СЗ 4
{16}
20 км в посл. час морось 4/4 1200 м
[Cu hum Ac und]
+20.1 +14.2 69 +22 +23 комфорт 1009.2 1004.5 +15.0 +25.7 0.0
19 14.06 СЗ 3-6
{7}
н/о н/о +19.7 +13.6 68 +22 +22 комфорт 1010.1 1005.4
20 14.06 СЗ 4-5
{6}
н/о н/о +19.1 +13.1 68 +20 +20 1011.5 1006.8
21 14.06 СЗ 3-5
{6}
н/о н/о +19.0 +13.0 68 +20 +20 1012.4 1007.7
22 14.06 СЗ 3-5
{6}
н/о н/о +18.9 +12.6 67 +20 +20 1012.9 1008.2
23 14.06 СЗ 3-5
{5}
н/о н/о +18.2 +12.6 70 +19 +19 1013.2 1008.5
00 15.06 З 1-1
{4}
н/о н/о +17.6 +12.1 70 +19 +19 1013.6 1008.9
01 15.06 СЗ 1-2
{2}
н/о н/о +16.7 +12.4 76 +18 +18 1013.6 1008.9
02 15.06 СЗ 1-2
{2}
н/о н/о +16.1 +12.6 80 +17 +17 1013.9 1009.2
03 15.06 СЗ 3-5
{5}
15 км 1/0
[Ci fib]
+16.7 +12.2 75 +17 +17 1014.1 1009.4
04 15.06 З 2-3
{4}
н/о н/о +16.7 +12.0 74 +17 +17 1014.6 1009.9
05 15.06 СЗ 2-4
{4}
н/о н/о +16.8 +12.1 74 +17 +17 1014.6 1009.9
06 15.06 СЗ 3
{10}
15 км 8/5 1000 м
[Cu hum Ac trans Cc]
+17.9 +12.1 69 +18 +19 1015.2 1010.5 +15.9 +20.1
07 15.06 СЗ 3-4
{5}
н/о н/о +19.4 +12.4 64 +21 +21 комфорт 1015.7 1011.0
08 15.06 З 1-3
{4}
н/о н/о +19.6 +12.8 65 +22 +22 комфорт 1016.5 1011.8
09 15.06 СЗ 3
{11}
15 км 8/5 1000 м
[Cu hum Ac trans Cc]
+20.5 +13.2 63 +23 +27 комфорт 1016.7 1012.0
10 15.06 СЗ 3-6
{6}
н/о н/о +21.3 +13.2 60 +24 +24 комфорт 1016.9 1012.2
11 15.06 СЗ 4-7
{7}
н/о н/о +22.4 +13.7 58 +26 +26 жарко 1017.0 1012.3
12 15.06 СЗ 4-7
{8}
н/о н/о +22.2 +13.0 56 +25 +25 комфорт 1017.2 1012.5
13 15.06 СЗ 4-8
{8}
н/о н/о +22.0 +11.7 52 +24 +24 комфорт 1017.1 1012.4
14 15.06 СЗ 5-8
{10}
н/о н/о +21.0 +11.3 54 +23 +23 комфорт 1017.4 1012.7
15 15.06 СЗ 5-17
{20}
25 км 5/5 1000 м
[Cu hum Ac trans]
+21.1 +11.1 53 +23 +26 комфорт 1017.8 1013.1
16 15.06 СЗ 4-8
{9}
н/о н/о +20.7 +11.1 54 +23 +23 комфорт 1018.3 1013.6
17 15.06 СЗ 4-9
{9}
н/о н/о +19.5 +10.5 56 +21 +21 комфорт 1018.4 1013.7
18 15.06 СЗ 5-10
{10}
н/о н/о +19.2 +10.5 57 +20 +20 1018.1 1013.4 +17.9 +23.0
19 15.06 СЗ 5-9
{9}
н/о н/о +18.9 +10.7 59 +19 +19 1018.6 1013.9
20 15.06 СЗ 4-8
{8}
н/о н/о +18.2 +10.6 61 +18 +18 1019.2 1014.5
21 15.06 СЗ 4-7
{9}
н/о н/о +18.2 +10.8 62 +18 +18 1019.8 1015.1
22 15.06 СЗ 4-7
{9}
н/о н/о +17.8 +10.9 64 +18 +18 1020.0 1015.2
23 15.06 СЗ 4-6
{7}
н/о н/о +17.4 +10.7 65 +17 +17 1020.5 1015.7
00 16.06 СЗ 3-5
{6}
н/о н/о +17.2 +10.8 66 +17 +17 1020.7 1015.9
01 16.06 СЗ 3-6
{6}
н/о н/о +16.9 +10.5 66 +17 +17 1020.3 1015.5
02 16.06 СЗ 2-4
{5}
н/о н/о +16.6 +10.4 67 +17 +17 1020.3 1015.5
03 16.06 СЗ 3-5
{5}
20 км 1/0
[Ci fib]
+16.3 +10.2 67 +16 +16 1020.0 1015.2
04 16.06 СЗ 3-6
{6}
н/о н/о +16.2 +10.3 68 +16 +16 1020.1 1015.3
05 16.06 СЗ 4-6
{7}
н/о н/о +16.8 +10.2 65 +16 +16 1020.2 1015.4
06 16.06 СЗ 3
{12}
н/о н/о +18.4 +10.5 60 +19 +19 1020.2 1015.5 +16.1 +19.5
07 16.06 СЗ 3-5
{6}
н/о н/о +20.4 +10.8 54 +23 +23 комфорт 1020.3 1015.6
08 16.06 СЗ 3-6
{6}
н/о н/о +21.9 +9.8 46 +23 +23 комфорт 1020.1 1015.4
09 16.06 СЗ 3-5
{6}
30 км 3/1 800 м
[Cu hum Ci sp]
+23.4 +10.1 43 +25 +36 комфорт 1020.0 1015.3
10 16.06 СЗ 3-6
{6}
н/о н/о +24.4 +9.5 39 +25 +25 комфорт 1019.3 1014.7
11 16.06 СЗ 3-5
{6}
н/о н/о +26.0 +8.9 34 +26 +26 жарко 1018.7 1014.1
12 16.06 СЗ 2-5
{5}
30 км ясно +27.7 +8.0 29 +27 +47 жарко 1017.9 1013.3
13 16.06 С 3-5
{5}
н/о н/о +27.8 +7.1 27 +27 +27 жарко 1017.2 1012.6
14 16.06 СЗ 3-5
{5}
н/о н/о +29.3 +6.0 23 +28 +28 жарко 1016.8 1012.2
15 16.06 ЮЗ 2-4
{5}
н/о н/о +25.8 +11.5 41 +27 +27 жарко 1016.5 1011.9
16 16.06 Ю 2-3
{4}
н/о н/о +22.9 +11.3 48 +25 +25 комфорт 1015.8 1011.2
17 16.06 Ю 3-4
{5}
н/о н/о +21.1 +14.0 64 +24 +24 комфорт 1015.8 1011.1
18 16.06 ЮЗ 1
{9}
25 км 5/0
[Ci fib]
+24.9 +10.4 40 +26 +27 жарко 1015.6 1011.0 +18.5 +29.9
19 16.06 З 2-3
{4}
н/о н/о +25.8 +8.3 33 +26 +26 жарко 1015.8 1011.2
20 16.06 СЗ 4-6
{6}
н/о н/о +24.5 +8.0 35 +25 +25 комфорт 1015.8 1011.2
21 16.06 СЗ 3-5
{6}
н/о н/о +23.7 +8.9 39 +24 +24 комфорт 1016.2 1011.6
22 16.06 СЗ 3-5
{5}
н/о н/о +22.9 +8.9 41 +24 +24 комфорт 1016.2 1011.5
23 16.06 СЗ 3-4
{6}
н/о н/о +22.7 +9.5 43 +24 +24 комфорт 1015.9 1011.2
00 17.06 СЗ 3-4
{5}
н/о н/о +22.2 +9.0 43 +24 +24 комфорт 1016.0 1011.3
01 17.06 СЗ 3-5
{5}
н/о н/о +22.3 +9.1 43 +24 +24 комфорт 1015.9 1011.2
02 17.06 СЗ 2-4
{4}
н/о н/о +21.4 +9.3 46 +23 +23 комфорт 1015.6 1010.9
03 17.06 Ю 1-2
{4}
25 км 4/0
[Ci fib]
+20.5 +9.7 50 +23 +23 комфорт 1015.7 1011.0
04 17.06 ЮЗ 1-2
{3}
н/о н/о +18.8 +10.6 59 +21 +21 комфорт 1016.0 1011.3
05 17.06 СЗ 1-2
{2}
н/о н/о +18.8 +12.3 66 +21 +21 комфорт 1016.2 1011.5
06 17.06 ЮВ 1
{3}
25 км 3/0
[Ci fib]
+18.6 +13.2 71 +20 +22 1016.5 1011.8 +18.4 +26.5
07 17.06 СВ 1-1
{2}
н/о н/о +20.7 +11.3 55 +24 +24 комфорт 1016.6 1011.9
08 17.06 В 1-1
{2}
н/о н/о +21.5 +11.2 52 +23 +23 комфорт 1016.4 1011.7
09 17.06 Ю 2
{5}
30 км 3/1 1000 м
[Cu med, cong Ci fib]
+21.2 +13.4 61 +24 +36 комфорт 1016.4 1011.7
10 17.06 Ю 1-2
{2}
н/о н/о +22.0 +12.5 55 +25 +25 комфорт 1016.1 1011.4
11 17.06 ЮВ 2-2
{2}
н/о н/о +22.2 +13.8 59 +25 +25 комфорт 1015.9 1011.2
12 17.06 Ю 2
{4}
30 км 3/1 1000 м
[Cu med, cong Ci fib]
+23.1 +12.7 52 +26 +44 жарко 1015.4 1010.8
13 17.06 Ю 2-3
{3}
н/о н/о +22.1 +15.7 67 +26 +26 душно 1015.4 1010.7
14 17.06 Ю 3-3
{4}
н/о н/о +22.2 +16.2 69 +26 +26 душно 1014.8 1010.2
15 17.06 Ю 4
{9}
25 км 4/1 1000 м
[Cu med, cong Ci fib]
+22.0 +13.4 58 +25 +32 комфорт 1014.7 1010.0
16 17.06 Ю 6
{10}
н/о н/о +21.6 +14.0 62 +24 +24 комфорт 1014.2 1009.5
17 17.06 Ю 3-4
{5}
н/о н/о +21.6 +13.8 61 +24 +24 комфорт 1013.9 1009.2
18 17.06 Ю 3-4
{4}
н/о н/о +23.3 +12.9 52 +26 +26 жарко 1013.6 1009.0 +18.6 +23.3
19 17.06 Ю 2-3
{3}
н/о н/о +22.8 +13.3 55 +26 +26 жарко 1013.7 1009.1
20 17.06 Ю 2-2
{3}
н/о н/о +21.7 +13.6 60 +24 +24 комфорт 1013.7 1009.0
21 17.06 ЮЗ 1-2
{3}
н/о н/о +22.2 +13.0 56 +25 +25 комфорт 1014.2 1009.5
22 17.06 С 2-4
{4}
н/о н/о +19.5 +14.5 73 +22 +22 комфорт 1014.3 1009.6
23 17.06 С 3-4
{4}
н/о н/о +19.0 +15.3 79 +21 +21 комфорт 1014.2 1009.5

 

Местоположение метеостанции Лёкат (Франция): широта 42.92 долгота 3.07 высота над уровнем моря 50 м.

В архиве по умолчанию представлена погода в Лёкате за последнюю неделю. Архивные данные за месяц целиком и за предыдущие месяцы, начиная с января 2011 года, Вы можете получить, выбрав интересующий диапазон дат из раскрывающегося списка и нажав кнопку "Ввод!".


*Определитесь, кто Вы:
робот инопланетянин человек

Внимание! Время в таблицах - всемирное. Для получения местного времени необходимо прибавить поправку, которая равна 1 ч.

Смотрите также архив погоды в соседних городах и на ближайших метеорологических станциях:

Погода в Перпиньяне (Франция) (27 км)
Погода на Мысе Беар (Франция) (45 км)
Погода в Безье (Франция) (50 км)
Погода в Каркассоне (Франция) (69 км)
Погода в Сете (Франция) (76 км)
Погода в Поркересе (Испания) (95 км)
Погода в Монпелье (Франция) (103 км)
Погода в Риполе (Испания) (108 км)
Погода в Ла-Молине (Испания) (113 км)
Погода в Жероне (Испания) (116 км)

Пояснения к столбцам:

Ветер - указаны скорость ветра в м/с - средняя за 10 мин, порывы в срок и между сроками (в фигурных скобках) и направление, откуда дует ветер: С - северный, СВ - северо-восточный, В - восточный, ЮВ - юго-восточный, Ю - южный, ЮЗ - юго-западный, З - западный, СЗ - северо-западный.
Видимость - горизонтальная дальность видимости в метрах или километрах. При видимости от 1 до 10 км при отсутствии осадков обычно наблюдается дымка, при ухудшении видимости до 1 км и менее - туман. В сухую погоду видимость может ухудшаться дымом, пылью или мглою.
Явления - указаны атмосферные явления, наблюдавшиеся в срок или в последний час перед сроком; фигурными скобками обозначены явления, наблюдавшиеся между сроками (за 1-3 часа до срока); квадратными скобками обозначены град или гололедные отложения с указанием их диаметра в мм.
Облачность - указаны через наклонную черту общая и нижняя облачность в баллах и высота нижней границы облаков в метрах; квадратными скобками обозначены формы облаков: Ci - перистые, Cs - перисто-слоистые, Cc - перисто-кучевые, Ac - высококучевые, As - высокослоистые, Sc - слоисто-кучевые, Ns - слоисто-дождевые, Cu - кучевые, Cb - кучево-дождевые. Подробнее классификацию облаков см. в Атласе облаков (PDF).
T - Температура воздуха - температура, измеренная на высоте 2 м над землей.
Td - Температура точки росы - температура, при понижении до которой содержащийся в воздухе водяной пар достигнет насыщения.
f - Относительная влажность воздуха - влажноcть воздуха, измеренная на высоте 2 м над землей.
Te - Эффективная температура - температура, которую ощущает одетый по сезону человек в тени. Характеристика душности погоды. При расчете учитывается влияние влажности воздуха и скорости ветра на теплоощущения человека.
Tes - Эффективная температура на солнце - температура, которую ощущает человек, с поправкой на солнечный нагрев. Характеристика знойности погоды. Зависит от высоты солнца над горизонтом, облачности и скорости ветра. Ночью, в пасмурную погоду, а также при ветре 12 м/с и более поправка равна нулю.
P - Атмосферное давление - приведенное к уровню моря атмосферное давление.
Po - Атмосферное давление - измеренное на уровне метеостанции атмосферное давление.
Tmin - Минимальная температура - минимум температуры воздуха на высоте 2 м над землей.
Tmax - Максимальная температура - максимум температуры воздуха на высоте 2 м над землей.
R - Количество осадков - Количество выпавших осадков за период времени, мм. При наведении курсора мыши на число - период времени, за который выпало указанное количество осадков.
R24 - Количество осадков - Количество выпавших осадков за 24 часа, мм.
S - Снежный покров - Высота снежного покрова, см. При наведении курсора мыши на число - состояние снежного покрова и степень покрытия местности в баллах.